Easton, MD

11:15 AM EDT on September 15, 2019 (GMT -0400)
Easton / Newnam

Weather History for KESN - August, 2019

Change the Weather History Date:

Thursday, August 22, 2019

  Actual Average Record
Temperature  
Mean Temperature 82 °F -  
Max Temperature 91 °F 85 °F 95 °F (1959)
Min Temperature 73 °F 64 °F 51 °F (1949)
Cooling Degree Days 17    
Growing Degree Days 32 (Base 50)    
Moisture  
Dew Point 74 °F    
Average Humidity 82    
Maximum Humidity 100    
Minimum Humidity 49    
Precipitation  
Precipitation 0.00 in - - ()
Sea Level Pressure  
Sea Level Pressure 29.96 in    
Wind  
Wind Speed 3 mph (SW)    
Max Wind Speed 13 mph    
Max Gust Speed 25 mph    
Visibility 9 miles    
Events      
Averages and records for this station are not official NWS values.
T = Trace of Precipitation, MM = Missing Value Source: NWS Daily Summary

Daily Weather History Graph

Daily Weather History Graph

Search for Another Location

Airport or City:

Astronomy

Aug. 22, 2019 Rise Set
Actual Time 6:24 AM EDT 7:49 PM EDT
Civil Twilight 5:56 AM EDT 8:17 PM EDT
Nautical Twilight 5:22 AM EDT 8:50 PM EDT
Astronomical Twilight 4:47 AM EDT 9:26 PM EDT
Moon 11:42 PM EDT (8/22) 12:53 PM EDT (8/22)
Length of Visible Light 14h 21m
Length of Day
13h 25m
Waning Gibbous, 60% of the Moon is Illuminated
Aug 22
Waning Gibbous
Aug 23
Last Quarter
Aug 30
New
Sep 5
First Quarter
Sep 14
Full

Hourly Weather History & Observations

Time (EDT) Temp. Heat Index Dew Point Humidity Pressure Visibility Wind Dir Wind Speed Gust Speed Precip Events Conditions
12:00 AM 76.5 °F - 75.4 °F 96% 29.95 in 10.0 mi Calm Calm - N/A   Mostly Cloudy
12:20 AM 77.2 °F - 76.1 °F 96% 29.95 in 5.0 mi SE 4.6 mph - 0.02 in   Overcast
12:40 AM 77.4 °F - 76.1 °F 96% 29.95 in 10.0 mi Calm Calm - 0.02 in   Overcast
1:00 AM 77.5 °F - 76.5 °F 96% 29.95 in 10.0 mi Calm Calm - N/A   Overcast
1:20 AM 77.5 °F - 76.5 °F 96% 29.96 in 7.0 mi Calm Calm - N/A   Overcast
1:40 AM 77.4 °F - 76.3 °F 96% 29.96 in 7.0 mi Calm Calm - N/A   Mostly Cloudy
2:00 AM 77.9 °F - 77.0 °F 97% 29.95 in 10.0 mi South 3.5 mph - N/A   Mostly Cloudy
2:20 AM 77.7 °F - 76.5 °F 96% 29.95 in 10.0 mi South 4.6 mph - N/A   Scattered Clouds
2:40 AM 77.4 °F - 75.9 °F 95% 29.95 in 10.0 mi South 4.6 mph - N/A   Scattered Clouds
3:00 AM 76.8 °F - 75.6 °F 96% 29.95 in 10.0 mi SSW 4.6 mph - N/A   Clear
3:20 AM 76.6 °F - 75.4 °F 96% 29.94 in 10.0 mi South 4.6 mph - N/A   Clear
3:40 AM 76.3 °F - 75.2 °F 96% 29.94 in 10.0 mi SE 4.6 mph - N/A   Clear
4:00 AM 75.9 °F - 74.7 °F 96% 29.93 in 10.0 mi South 3.5 mph - N/A   Clear
4:20 AM 75.9 °F - 74.8 °F 96% 29.93 in 10.0 mi Calm Calm - N/A   Clear
4:40 AM 74.8 °F - 73.8 °F 96% 29.92 in 5.0 mi Calm Calm - N/A   Clear
5:00 AM 75.2 °F - 73.9 °F 96% 29.92 in 10.0 mi Calm Calm - N/A   Clear
5:20 AM 74.7 °F - 73.6 °F 96% 29.92 in 7.0 mi Calm Calm - N/A   Clear
5:40 AM 74.3 °F - 73.2 °F 96% 29.93 in 7.0 mi Calm Calm - N/A   Clear
5:41 AM 74.3 °F - 73.2 °F 96% 29.93 in 7.0 mi Calm Calm - N/A   Clear
6:00 AM 73.4 °F - 71.6 °F 94% 29.94 in 5.0 mi Calm Calm - N/A   Partly Cloudy
6:49 AM 73.4 °F - 73.4 °F 100% 29.95 in 7.0 mi Calm Calm - N/A   Partly Cloudy
7:52 AM 78.8 °F - 75.2 °F 89% 29.98 in 10.0 mi WSW 4.6 mph - N/A   Scattered Clouds
8:50 AM 82.4 °F 90.9 °F 77.0 °F 84% 29.99 in 10.0 mi WSW 5.8 mph - N/A   Scattered Clouds
9:50 AM 82.4 °F 90.9 °F 77.0 °F 84% 29.99 in 10.0 mi WNW 5.8 mph - N/A   Partly Cloudy
10:50 AM 86.0 °F 93.4 °F 73.4 °F 66% 30.00 in 10.0 mi WSW 9.2 mph - N/A   Partly Cloudy
11:50 AM 87.8 °F 91.4 °F 68.0 °F 52% 29.99 in 10.0 mi West 11.5 mph 17.3 mph N/A   Partly Cloudy
12:50 PM 89.6 °F 98.2 °F 73.4 °F 59% 29.98 in 10.0 mi West 5.8 mph - N/A   Partly Cloudy
1:50 PM 89.6 °F 96.2 °F 71.6 °F 55% 29.98 in 10.0 mi SSW 5.8 mph - N/A   Partly Cloudy
2:51 PM 91.4 °F 98.4 °F 71.6 °F 52% 29.97 in 10.0 mi SW 6.9 mph - N/A   Partly Cloudy
3:49 PM 91.4 °F 96.8 °F 69.8 °F 49% 29.95 in 10.0 mi West 3.5 mph - N/A   Partly Cloudy
4:50 PM 91.4 °F 96.8 °F 69.8 °F 49% 29.92 in 10.0 mi SSW 5.8 mph - N/A   Partly Cloudy
5:53 PM 89.6 °F 94.7 °F 69.8 °F 52% 29.93 in 10.0 mi SSW 5.8 mph - N/A   Scattered Clouds
6:49 PM 89.6 °F 96.2 °F 71.6 °F 55% 29.92 in 10.0 mi SSW 8.1 mph - N/A   Scattered Clouds
7:46 PM 87.8 °F 95.6 °F 73.4 °F 62% 29.93 in 10.0 mi SSW 6.9 mph - N/A   Mostly Cloudy
8:50 PM 84.2 °F 90.9 °F 73.4 °F 70% 29.92 in 10.0 mi South 5.8 mph - N/A   Clear
10:20 PM 83.7 °F 90.4 °F 73.8 °F 72% 29.99 in 10.0 mi NW 6.9 mph - N/A   Scattered Clouds
10:40 PM 77.5 °F - 68.4 °F 73% 30.01 in 10.0 mi NW 12.7 mph 25.3 mph N/A   Overcast
11:00 PM 75.4 °F - 69.1 °F 81% 30.00 in 10.0 mi North 5.8 mph - N/A   Scattered Clouds
11:20 PM 75.0 °F - 69.8 °F 84% 30.00 in 10.0 mi North 3.5 mph - N/A   Clear
11:40 PM 74.1 °F - 70.0 °F 87% 30.00 in 10.0 mi ENE 3.5 mph - N/A   Clear